#timestamp,LO_Frequency,Hit,StdDev 
1591300815.3,286046999.3,N
1591300835.1,286046997.5,N
1591300855.8,286046992.9,N
1591300875.7,286046986.0,Y
1591300895.5,286046984.9,P
1591300915.4,286046980.2,N
1591300935.2,286046981.4,N
1591300955.0,286046984.1,N
1591300955.9,286046984.1,N
1591300975.8,286046989.6,N
1591300995.6,286046992.9,N
1591301015.4,286046990.9,N
1591301035.3,286046988.9,N
1591301055.1,286046991.0,N
1591301075.9,286046993.7,N
1591301095.7,286046995.5,N
1591301115.5,286047001.2,N
1591301135.4,286046997.9,N
1591301155.2,286046995.7,N
1591301175.0,286047003.8,N
1591301175.9,286047003.8,N
1591301195.8,286047006.7,N
1591301215.6,286046996.6,N
1591301235.5,286046993.7,N
1591301255.3,286046995.6,N
1591301275.1,286046994.4,N
1591301295.9,286046991.9,N
1591301315.7,286046985.3,N
1591301335.5,286046982.8,N
1591301355.4,286046987.7,N
1591301375.2,286046987.0,N
1591301395.1,286046991.4,N
1591301396.0,286046991.4,N
1591301415.8,286046991.3,N
1591301435.6,286046989.8,N
1591301455.5,286046984.7,N
1591301475.3,286046982.1,N
1591301495.1,286046989.0,N
1591301515.9,286046989.5,N
1591301535.7,286046987.1,N
1591301555.6,286046982.5,N
1591301575.4,286046980.9,Y
1591301595.2,286046990.8,P
1591301615.1,286046993.1,P
1591301616.0,286046993.1,P
1591301635.8,286046983.7,Y
1591301655.6,286046987.0,P
1591301675.5,286046993.5,N
1591301695.3,286047003.4,N
1591301715.2,286046997.9,N
1591301735.9,286046993.5,N
1591301755.7,286046993.8,N
1591301775.6,286046999.1,N
1591301795.4,286046999.9,N
1591301815.2,286047007.3,N
1591301835.1,286047004.9,N
1591301836.0,286047004.9,N
1591301855.8,286047004.4,N
1591301875.7,286047009.1,N
1591301895.5,286047005.4,N
1591301915.3,286047004.6,N
1591301935.2,286047007.2,N
1591301955.9,286047005.6,N
1591301975.7,286046998.1,N
1591301995.6,286047001.1,N
1591302015.4,286047002.8,N
1591302035.3,286047005.5,N
1591302055.1,286047003.2,N
1591302056.0,286047003.2,N
1591302075.8,286047007.1,N
1591302095.7,286047011.9,N
1591302115.5,286047011.7,N
1591302135.3,286047009.9,N
1591302155.2,286047010.6,N
1591302175.0,286047006.3,N
1591302175.9,286047006.3,N
1591302195.8,286047007.5,N
1591302215.6,286047001.8,N
1591302235.4,286047000.4,N
1591302255.3,286047008.7,N
1591302275.1,286047017.1,Y
1591302295.8,286047002.9,P
1591302315.7,286047006.2,P
1591302335.5,286047010.9,P
1591302355.4,286047013.6,Y
1591302375.2,286047009.2,P
1591302395.0,286047016.4,P
1591302395.9,286047016.4,P
1591302415.8,286047015.9,Y
1591302435.6,286046997.4,P
1591302455.5,286046991.1,N
1591302475.3,286046993.1,N
1591302495.1,286046999.5,N
1591302515.9,286046999.0,N
1591302535.7,286046999.7,N
1591302555.5,286047005.5,N
1591302575.4,286047010.5,N
1591302595.2,286047013.6,N
1591302615.1,286047011.8,N
1591302616.0,286047011.8,N
1591302635.8,286047011.2,N
1591302655.6,286047018.9,N
1591302675.5,286047015.7,N
1591302695.3,286047015.7,N
1591302715.1,286047021.4,N
1591302735.9,286047016.3,N
1591302755.7,286047019.9,N
1591302775.6,286047027.5,Y
1591302795.4,286047017.1,P
1591302815.2,286047016.1,P
1591302835.1,286047013.0,P
1591302836.0,286047013.0,Y
1591302855.8,286046993.3,P
1591302875.6,286046989.3,N
1591302895.5,286046987.5,N
1591302915.3,286046991.3,N
1591302935.2,286046999.6,N
1591302955.9,286046995.2,N
1591302975.7,286047000.0,N
1591302995.6,286046999.3,N
1591303015.4,286046995.0,N
1591303035.3,286046994.7,N
1591303055.1,286046988.1,N
1591303056.0,286046988.1,N
1591303075.8,286046984.2,N
1591303095.7,286046991.6,N
1591303115.5,286046986.1,N
1591303135.3,286046987.8,N
1591303155.2,286046989.3,N
1591303175.0,286046994.5,N
1591303175.9,286046994.5,N
1591303195.8,286046994.2,N
1591303215.6,286046993.9,N
1591303235.4,286046998.8,N
1591303255.3,286046995.7,N
1591303275.1,286046995.5,N
1591303295.9,286046995.0,N
1591303315.7,286046997.5,N
1591303335.5,286046995.1,N
1591303355.4,286046997.6,N
1591303375.2,286046995.9,N
1591303395.1,286046994.4,N
1591303396.0,286046994.4,N
1591303415.8,286046993.3,N
1591303435.7,286046994.6,N
1591303455.5,286046991.3,N
1591303475.4,286046990.1,N
1591303495.2,286046991.0,N
1591303515.0,286046985.3,Y
1591303515.9,286046985.3,P
1591303535.8,286046991.5,N
1591303555.6,286046986.3,P
1591303575.5,286046978.6,Y
1591303595.3,286046983.8,P
1591303615.1,286046988.2,P
1591303635.9,286046992.1,P
1591303655.7,286046999.8,N
1591303675.5,286046995.6,N
1591303695.4,286046994.8,N
1591303715.2,286046995.4,N
1591303735.1,286046999.3,N
1591303736.0,286046999.3,N
1591303755.8,286047004.4,N
1591303775.6,286047006.5,N
1591303795.5,286047003.5,N
1591303815.3,286046999.9,N
1591303835.2,286046999.8,N
1591303855.0,286047002.4,N
1591303855.9,286047002.4,N
1591303875.8,286047007.2,N
1591303895.6,286047008.7,N
1591303915.4,286047000.2,N
1591303935.3,286047001.2,N
1591303955.1,286046998.4,N
1591303975.8,286047001.1,N
1591303995.7,286047000.6,N
1591304015.5,286047000.4,N
1591304035.4,286046993.6,N
1591304055.2,286046992.2,N
1591304075.0,286046993.9,N
1591304075.9,286046993.9,N
1591304095.8,286046990.0,N
1591304115.6,286046990.5,N
1591304135.4,286046994.9,N
1591304155.3,286046993.5,N
1591304175.2,286047001.2,N
1591304195.0,286046998.8,N
1591304195.9,286046998.8,N
1591304215.7,286047004.9,N
1591304235.6,286047012.3,N
1591304255.4,286047013.0,N
1591304275.3,286047016.0,N
1591304295.1,286047017.6,N
1591304296.0,286047017.6,N
1591304315.8,286047011.7,N
1591304335.7,286047009.5,N
1591304355.5,286047013.3,N
1591304375.3,286047018.8,N
1591304395.2,286047021.3,N
